Regional Weather Roundup
Issued by NWS

Home | Current Version | Previous Version | Graphics & Text | Print | Product List | Glossary On
Versions: 1 2 3 4 5 6 7 8 9 10 11 12 13 14 15 16 17 18 19 20 21 22 23 24 25 26 27 28 29 30 31 32 33 34 35 36 37 38 39 40 41 42 43 44 45 46 47 48 49 50
000
ASUS43 KMPX 220101
RWRMN
WEATHER ROUNDUP FOR MINNESOTA
NATIONAL WEATHER SERVICE TWIN CITIES/CHANHASSEN MN
800 PM CDT MON MAY 21 2018


NOTE: "FAIR" INDICATES FEW OR NO CLOUDS BELOW 12,000 FEET WITH NO
SIGNIFICANT WEATHER AND/OR OBSTRUCTIONS TO VISIBILITY. N/A MEANS
CURRENT SKY AND/OR WEATHER CONDITIONS ARE NOT AVAILABLE.

MNZ060>063-068>070-220200-
   Twin Cities Metro

CITY           SKY/WX    TMP DP  RH WIND       PRES   REMARKS
TWIN CITIES    CLOUDY    63  53  70 SE9       30.00S
ST PAUL        CLOUDY    61  51  70 SE8       30.01R
CRYSTAL        CLOUDY    64  51  62 SE7       29.98S
BLAINE         CLOUDY    64  54  68 E7        29.99S
LAKEVILLE      CLOUDY    57  54  88 SE7       30.00S
EDEN PRAIRIE   CLOUDY    62  52  69 SE8       29.99R
SOUTH ST PAUL  CLOUDY    62  51  67 SE6       30.00S
LAKE ELMO      CLOUDY    61  54  77 SE6       30.02S
$$
MNZ001>005-007-008-013>017-022>024-027-028-220200-
   Northwest Minnesota

CITY           SKY/WX    TMP DP  RH WIND       PRES   REMARKS
BEMIDJI        FAIR      62  40  44 S6        29.99F
HALLOCK        FAIR      77  27  15 S7        29.90S
ROSEAU         FAIR      73  48  40 S5        29.93F
WARROAD        FAIR      66  45  45 CALM      29.94F
THIEF RVR FALL FAIR      70  39  32 S15       29.95F
CROOKSTON      FAIR      72  43  35 S14       29.94F
FOSSTON        CLOUDY    66  39  37 S9        29.98F
DETROIT LAKES  FAIR      63  46  55 S8        30.00S
MOORHEAD       FAIR      66  54  63 SE14      29.97S
PARK RAPIDS    FAIR      59  47  64 SE8       30.00S
MAHNOMEN       CLOUDY    65  42  42 S3        29.98S
$$
MNZ006-009>011-018-025>026-220200-
   North Central Minnesota

CITY           SKY/WX    TMP DP  RH WIND       PRES   REMARKS
BAUDETTE       FAIR      71  37  28 SW6       29.94F
FLAG ISLAND    FAIR      70  39  32 SE3       29.93S
INTL FALLS     FAIR      73  34  23 CALM      29.94F
WASKISH        FAIR      68  45  42 S6        29.97S
BIG FORK       FAIR      63  43  48 SW9       29.99S
LONGVILLE      CLOUDY    55  45  67 S3        30.01F
GRAND RAPIDS   CLOUDY    56  43  61 S10       30.02F
CRANE LAKE     FAIR      66  36  32 CALM      29.97S
ORR            FAIR      66  32  28 S8        29.96R
COOK           FAIR      66  36  32 S7        29.99S
WALKER         FAIR      58  45  62 S8        30.00S
$$
MNZ012-019>021-037-220200-
   Northeast Minnesota

CITY           SKY/WX    TMP DP  RH WIND       PRES   REMARKS
DULUTH         MOCLDY    61  32  33 SE5       30.02S
ELY            FAIR      70  28  21 SW7       29.98S
HIBBING        CLOUDY    61  36  39 S7        30.00S
EVELETH        FAIR      65  38  36 SW8       30.01F
DULUTH HARBOR  CLOUDY    54  45  71 CALM      30.02S
TWO HARBORS    CLOUDY    64  37  36 CALM      30.00S
SILVER BAY     FAIR      61  30  31 CALM      30.00S
GRAND MARAIS     N/A     54  31  41 E7        30.01F
G MARAIS ARPRT FAIR      55  27  33 CALM      30.03F
$$
MNZ029>031-032-039>041-046>048-054>057-064-220200-
   West Central Minnesota

CITY           SKY/WX    TMP DP  RH WIND       PRES   REMARKS
FERGUS FALLS   CLOUDY    61  54  77 S8        29.96S
WHEATON        CLOUDY    61  54  77 SE6       30.00S
MORRIS         CLOUDY    59  55  88 SE7       29.99S
ALEXANDRIA     CLOUDY    59  50  72 E6        30.01S
ELBOW LAKE     CLOUDY    59  54  82 SE6       30.00S
WADENA         MOCLDY    59  43  55 E7        30.00S
GLENWOOD       FAIR      57  54  88 E6        30.01S
APPLETON       CLOUDY    61  57  88 E5        29.98F FOG
BENSON         DRZL/FOG  57  55  94 E5        30.01S VSB 1
ORTONVILLE     CLOUDY    61  55  82 SE5       29.98S
MADISON        CLOUDY    64  57  77 E9        29.98S
WILLMAR        CLOUDY    59  55  88 NE3       30.02S
$$
MNZ033>034-036-042>043-049>051-058-059-220200-
   Central Minnesota

CITY           SKY/WX    TMP DP  RH WIND       PRES   REMARKS
ST CLOUD       CLOUDY    56  48  74 N5        30.00S
SAUK CENTRE    CLOUDY    55  48  76 E5        30.01S
PAYNESVILLE    CLOUDY    55  52  90 NE3       30.01S
AITKIN         CLOUDY    54  48  82 CALM      30.00F
PINE RIVER     CLOUDY    55  39  54 S6        30.04F
BRAINERD       CLOUDY    59  40  49 E3        30.01F
STAPLES        CLOUDY    57  39  51 CALM      30.01F
LONG PRAIRIE   CLOUDY    54  46  76 NE5       30.02S
LITTLE FALLS   CLOUDY    55  45  67 CALM      30.01S
LITCHFIELD     MOCLDY    57  55  94 N3        29.99F
BUFFALO        CLOUDY    60  49  67 N7        30.00S
MAPLE LAKE     CLOUDY    58  52  79 N3        30.00F
HUTCHINSON     CLOUDY    61  57  88 N5        30.00S
$$
MNZ037-044-045-052-053-220200-
   East Central Minnesota

CITY           SKY/WX    TMP DP  RH WIND       PRES   REMARKS
PRINCETON      CLOUDY    57  46  67 N3        29.99F
MORA           CLOUDY    54  45  71 CALM      30.02S
CAMBRIDGE      CLOUDY    63  46  55 NW5       30.00R
RUSH CITY      CLOUDY    65  52  62 S8        29.99F HAZE
MOOSE LAKE     CLOUDY    57  45  62 CALM      30.00F
HINCKLEY       CLOUDY    54  46  76 N5        30.00F
CLOQUET        DRIZZLE   57  41  54 NE5       30.02F
MCGREGOR       CLOUDY    55  46  71 CALM      30.02F
$$
MNZ071>073-080-081-089-090-097-098-220200-
   Southwest Minnesota

CITY           SKY/WX    TMP DP  RH WIND       PRES   REMARKS
MONTEVIDEO     CLOUDY    63  61  94 SE3       29.99S
GRANITE FALLS  CLOUDY    63  59  87 E5        30.00S
CANBY          CLOUDY    64  58  82 CALM      29.99S
MARSHALL       CLOUDY    62  59  90 S6        29.99S
REDWOOD FALLS  CLOUDY    61  60  97 CALM      29.98F FOG
OLIVIA         CLOUDY    61  57  88 CALM      29.98F
PIPESTONE      CLOUDY    63  57  82 CALM      29.99R
WINDOM         CLOUDY    61  46  59 CALM      29.99S
WORTHINGTON      N/A     61  59  93 E6        30.00S
JACKSON        CLOUDY    61  55  82 CALM      30.00S
TRACY          CLOUDY    61  60  96 CALM      29.99S
SLAYTON        CLOUDY    62  57  84 CALM      30.00S
$$
MNZ065>067-074>077-082>085-091>093-220200-
   South Central Minnesota

CITY           SKY/WX    TMP DP  RH WIND       PRES   REMARKS
NEW ULM        CLOUDY    63  57  82 CALM      29.98S
ST JAMES       LGT RAIN  61  61 100 CALM      29.99F
FAIRMONT       CLOUDY    62  59  90 CALM      29.99F
GLENCOE        CLOUDY    67  54  62 E10       29.97S
FARIBAULT      CLOUDY    57  54  88 CALM      30.01S
OWATONNA       CLOUDY    57  55  94 E7        30.00F
WASECA         CLOUDY    59  54  82 E6        30.01S
ALBERT LEA     RAIN      57  55  94 CALM      30.00S
$$
MNZ078>079-086>088-094>096-220200-
   Southeast Minnesota

CITY           SKY/WX    TMP DP  RH WIND       PRES   REMARKS
ROCHESTER      CLOUDY    54  54 100 E6        30.02S FOG
RED WING       CLOUDY    59  52  77 E5        30.00S
STANTON        CLOUDY    58  53  84 SE5       30.00S
DODGE CENTER   RAIN      54  54 100 E3        30.01S
WINONA         DRIZZLE   55  55 100 CALM      29.99S
AUSTIN         DRIZZLE   55  54  94 CALM      30.00S
PRESTON        CLOUDY    54  52  95 CALM      30.01S FOG
$$
ABBREVIATIONS USED IN REMARKS
   TC - TEMPERATURES IN CELSIUS
  WCI - WIND CHILL INDEX
   HX - HEAT INDEX
  VSB - VISIBILITY
$$



USA.gov is the U.S. government's official web portal to all federal, state and local government web resources and services.